Flag for Brazil Weather past 2 weeks in Porto Velho, Rondônia, Brazil

Now
75 °F

Clear.


Feels Like: 75 °F
Forecast: 72 / 95 °F
Wind: No wind

Location: Porto Velho Aeroporto

Current Time: Aug 31, 2014 at 4:59:19 AM

Latest Report: Aug 31, 2014 at 4:00 AM


Visibility: 4 mi

Pressure: 29.89 "Hg

Humidity: 89%

Dew point: 72 °F

Location of Porto VelhoLocation

Historic Weather in Porto Velho — Graph

°F

Porto Velho temperature yesterday

Maximum temperature yesterday: 93 °F (at 2:00 PM)
Minimum temperature yesterday: 73 °F (at 4:00 AM)
Average temperature yesterday: 82 °F

Past Weeks' High & Low Weather Summary

 TemperatureHumidityPressure
High97 °F (Aug 19, 4:00 PM)94% (Aug 16, 3:00 AM)30.04 "Hg (Aug 16, 3:00 AM)
Low68 °F (Aug 20, 5:00 AM)17% (Aug 20, 1:00 PM)29.71 "Hg (Aug 26, 4:00 PM)
Average81 °F66%29.88 "Hg
* Reported Aug 16 3:00 AM — Aug 31 3:00 AM, Porto Velho, Weather by CustomWeather, © 2014

Note: Actual official high and low records may vary slightly from our data, if they occured in-between our weather recording intervals... More about our weather records

Advertising

Porto Velho weather history for previous 24 hours

 ConditionsComfort  
Time TempWeatherWind HumidityBarometerVisibility
3:00 AM
Aug 31
75 °FClear.No wind89%29.92 "Hg4 mi
2:00 AM75 °FClear.No wind89%29.92 "Hg5 mi
1:00 AM75 °FClear.No wind94%29.92 "Hg5 mi
12:00 AM75 °FClear.2 mph89%29.95 "Hg10 mi
11:00 PM
Aug 30
77 °FClear.2 mph83%29.95 "Hg10 mi
10:00 PM77 °FClear.1 mph83%29.92 "Hg10 mi
9:00 PM77 °FClear.No wind83%29.89 "Hg10 mi
8:00 PM77 °FClear.No wind83%29.86 "Hg10 mi
7:00 PM82 °FPassing clouds.2 mph66%29.86 "HgN/A
6:00 PM88 °FScattered showers. Scattered clouds.7 mph59%29.86 "HgN/A
5:00 PM88 °FThunderstorms. Scattered clouds.2 mph55%29.86 "HgN/A
4:00 PM93 °FScattered clouds.No wind49%29.86 "HgN/A
3:00 PM93 °FScattered clouds.3 mph44%29.89 "HgN/A
2:00 PM93 °FScattered clouds.5 mph44%29.92 "HgN/A
1:00 PM91 °FScattered clouds.3 mph46%29.95 "HgN/A
12:00 PM91 °FScattered clouds.5 mph49%29.98 "HgN/A
11:00 AM90 °FScattered clouds.3 mph52%29.98 "HgN/A
10:00 AM88 °FPassing clouds.2 mph52%30.01 "HgN/A
9:00 AM84 °FSunny.No wind66%30.01 "Hg10 mi
8:00 AM81 °FClear.No wind79%29.98 "Hg5 mi
7:00 AM73 °FFog.No wind94%29.95 "Hg2 mi
6:00 AM73 °FFog.No wind94%29.95 "Hg3 mi
5:00 AM73 °FFog.No wind94%29.92 "Hg3 mi
4:00 AM73 °FClear.No wind94%29.92 "Hg6 mi
Weather by CustomWeather, © 2014

See weather overviewHow to use our weather pages